Regional Weather Roundup
Issued by NWS

Home | Current Version | Previous Version | Text Only | Print | Product List | Glossary Off
Versions: 1 2 3 4 5 6 7 8 9 10 11 12 13 14 15 16 17 18 19 20 21 22 23 24 25 26 27 28 29 30 31 32 33 34 35 36 37 38 39 40 41 42 43 44 45 46 47 48 49 50

000
ASUS45 KSLC 281310
RWRUT

UTAH REGIONAL WEATHER ROUNDUP
NATIONAL WEATHER SERVICE SALT LAKE CITY UT
700 AM MDT SUN MAY 28 2017

UTZ001>011-023>025-281400-

NORTHERN UTAH

CITY           SKY/WX    TMP DP  RH WIND       PRES   REMARKS
BRIGHAM CITY   CLEAR     47  37  67 CALM      30.26R
HILL AFB       CLEAR     48  34  58 E18       30.25R
LOGAN          CLEAR     43  38  82 CALM      30.30R
OGDEN          CLEAR     49  36  61 S6        30.24R
SALT LAKE CITY CLEAR     54  41  61 CALM      30.24R
TOOELE VALLEY  CLEAR     45  37  76 S7        30.25R
WENDOVER       PTCLDY    53  34  48 CALM      30.24R
HEBER CITY     CLEAR     39  32  75 CALM      30.32R
WEST JORDAN    CLEAR     49  43  80 CALM      30.26R

$$

UTZ011>015-024>027-281400-

CENTRAL/NORTHEAST UTAH

CITY           SKY/WX    TMP DP  RH WIND       PRES   REMARKS
PROVO AIRPORT  CLEAR     47  38  71 S5        30.27R
MOAB/CANYONLAN SUNNY     58  27  30 S3        30.22R
DELTA          CLEAR     45  36  70 NE3       30.25R
PRICE          CLEAR     48  28  46 CALM      30.29R
ROOSEVELT      SUNNY     41  32  70 CALM      30.34R
VERNAL         SUNNY     50  31  48 CALM      30.31R

$$

UTZ013>016-019>022-027-281400-

SOUTHERN UTAH

CITY           SKY/WX    TMP DP  RH WIND       PRES   REMARKS
BRYCE CANYON   CLEAR     33  25  72 W9        30.35R WCI  25
CEDAR CITY     CLEAR     40  28  62 CALM      30.26R
MILFORD        CLEAR     40  27  59 S5        30.25R
ST GEORGE      SUNNY     62  26  25 E7        30.12R
HANKSVILLE     CLEAR     54  25  32 N5        30.26R
BLANDING       SUNNY     55  21  25 N13       30.32R

$$

REGIONAL REPORTS     COLORADO/ARIZONA

CITY           SKY/WX    TMP DP  RH WIND       PRES   REMARKS
CRAIG, CO      SUNNY     35  32  88 SW3       30.36R
GRAND JUNCTION SUNNY     50  32  50 SE7       30.29R
RIFLE, CO      SUNNY     40  29  64 SE3       30.35R
MONTROSE, CO   SUNNY     43  30  60 SE9       30.34R
CORTEZ, CO     SUNNY     39  31  72 E3        30.28R
COLORADO CITY    N/A     46  30  53 NE3       30.21S
PAGE, AZ       CLEAR     63  25  23 SW3       30.18R
GRAND CANYON   CLEAR     39  26  59 E5        30.27R
KINGMAN, AZ    CLEAR     55  23  28 SE7       30.06R
FLAGSTAFF, AZ  CLEAR     41  26  55 E6        30.26R

$$

REGIONAL REPORTS    NEVADA/IDAHO/WYOMING

CITY           SKY/WX    TMP DP  RH WIND       PRES   REMARKS
LAS VEGAS, NV  CLEAR     74  23  15 NE5       30.01R
ELY, NY        PTCLDY    31  20  63 S15       30.32R WCI  20
ELKO, NV       CLEAR     42  35  76 CALM      30.27R
POCATELLO, ID  CLEAR     40  39  97 CALM      30.29R
BURLEY, ID     CLEAR     44  42  93 CALM      30.25R
FORT BRIDGER,    N/A     45  30  57 W6        30.39R
EVANSTON, WY   SUNNY     43  30  60 E6        30.36R
ROCK SPRINGS,  SUNNY     40  30  67 SW3       30.35R
KEMMERER, WY     N/A     37  30  75 N9        30.38R WCI  31

$$



USA.gov is the U.S. government's official web portal to all federal, state and local government web resources and services.